Location: Klein M�hlingen
(51.9472°N, 11.7453°E)
Time: 11:33:51
(UTC+00:00)

ISS - Pass Details

Date: 03 October 2021
Orbit: 417 x 423 km, 51.6° (Epoch: 28 October)

Event Time Altitude Azimuth Distance (km) Brightness Sun altitude
Rises 18:18:24 0° 282° (WNW) 2,367 2.0 -15.1°
Reaches altitude 10° 18:20:50 10° 265° (W) 1,501 0.2 -15.4°
Maximum altitude 18:23:24 20° 215° (SW) 1,022 -1.6 -15.8°
Enters shadow 18:25:27 13° 172° (S) 1,345 -1.4 -16.1°
